Regional Weather Roundup
Issued by NWS State College, PA

Home | Current Version | Previous Version | Graphics & Text | Print | Product List | Glossary On
Versions: 1 2 3 4 5 6 7 8 9 10 11 12 13 14 15 16 17 18 19 20 21 22 23 24 25 26 27 28 29 30 31 32 33 34 35 36 37 38 39 40 41 42 43 44 45 46 47 48 49 50
000
ASUS41 KCTP 262310
RWRCTP

REGIONAL WEATHER ROUNDUP
NATIONAL WEATHER SERVICE STATE COLLEGE PA
600 PM EST FRI DEC 26 2014

Note: "fair" indicates few or no clouds below 12,000 feet with no
significant weather and/or obstructions to visibility.

* = STATION THAT DOES NOT REPORT PRECIPITATION /E.G. RAIN...SNOW...ETC/
    THUNDER OR FOG.

PAZ002>004-007>009-013>016-020>023-029>032-270000-
WESTERN PENNSYLVANIA

CITY           SKY/WX    TMP DP  RH WIND       PRES   REMARKS
ERIE           PTCLDY    45  31  58 S10       30.15R
MEADVILLE      PTCLDY    42  31  64 VRB5      30.15R
FRANKLIN*      PTCLDY    39  28  65 S9        30.18S
NEW CASTLE       N/A     44  32  63 VRB3      30.19S
BEAVER COUNTY  CLEAR     43  32  65 S6        30.18F
BUTLER*        PTCLDY    43  28  56 S5        30.21S
PITTSBURGH INT PTCLDY    44  31  60 S6        30.20S
PITTSBURGH     PTCLDY    44  27  51 S7        30.20R
INDIANA*       CLEAR     41  30  65 CALM      30.24R
LATROBE        PTCLDY    43  32  65 SW6       30.24R
WASHINGTON CO* NOT AVBL
$$

PAZ004>006-010>012-017>019-024>028-033>037-041-042-045-046-049>053-270000-
CENTRAL PENNSYLVANIA

CITY           SKY/WX    TMP DP  RH WIND       PRES   REMARKS
BRADFORD       CLEAR     38  27  64 VRB3      30.15R
DUBOIS         CLEAR     38  29  70 SW5       30.17R
CLEARFIELD     CLEAR     42  28  57 W3        30.19R
JOHNSTOWN      CLEAR     42  24  49 W8        30.18R
ALTOONA        CLEAR     42  30  62 CALM      30.20R
STATE COLLEGE  CLEAR     41  28  60 SW5       30.20R
WILLIAMSPORT   CLEAR     34  29  82 CALM      30.20R
SELINSGROVE    CLEAR     36  29  75 CALM      30.22R
FT INDIANTOWN  CLEAR     37  31  77 CALM      30.23R
CAPITAL CITY   CLEAR     38  31  76 SW3       30.23R
HARRISBURG     PTCLDY    38  31  76 CALM      30.23R
YORK           CLEAR     37  29  72 CALM      30.23R
$$

PAZ038>040-043-044-047-048-054-055-060>062-067>071-270000-
EASTERN PENNSYLVANIA

CITY           SKY/WX    TMP DP  RH WIND       PRES   REMARKS
SCRANTON       CLEAR     40  27  59 S3        30.19R
MOUNT POCONO   CLEAR     35  25  66 NW5       30.16R
ALLENTOWN      CLEAR     38  28  67 SW7       30.21S
QUAKERTOWN*    NOT AVBL
READING        CLEAR     43  30  60 CALM      30.23R
LANCASTER      CLEAR     39  29  67 CALM      30.24R
COATESVILLE    CLEAR     41  32  70 CALM      30.23S
POTTSTOWN      CLEAR     40  30  67 CALM      30.24S
BLUE BELL      CLEAR     39  32  75 CALM      30.23S
DOYLESTOWN     CLEAR     40  30  67 CALM      30.22R
WILLOW GROVE   NOT AVBL
NORTH PHILA    CLEAR     43  29  57 W7        30.25S
PHILADELPHIA   PTCLDY    44  30  57 W6        30.25S
$$


USA.gov is the U.S. government's official web portal to all federal, state and local government web resources and services.